Tiempo cada hora Barnab

Hoy, 1 Marzo, Lunes

Tiempo Temperatura Precipitaciones Viento Presión Humedad
00:00 -6°C° 0 mm 2 mps 605 mmHg 81%
01:00 -6°C° 0.3 mm 2 mps 606 mmHg 85%
02:00 -5°C° 0.3 mm 2 mps 606 mmHg 89%
03:00 -5°C° 0 mm 2 mps 607 mmHg 94%
04:00 -5°C° 0.6 mm 2 mps 607 mmHg 94%
05:00 -5°C° 0.6 mm 2 mps 607 mmHg 95%
06:00 -3°C° 0.6 mm 1 mps 608 mmHg 95%
07:00 -5°C° 0.4 mm 2 mps 608 mmHg 95%
08:00 -4°C° 0.4 mm 2 mps 609 mmHg 94%
09:00 -4°C° 0 mm 2 mps 609 mmHg 93%
10:00 -4°C° 0.5 mm 2 mps 610 mmHg 92%
11:00 -4°C° 0.5 mm 2 mps 610 mmHg 90%
12:00 -3°C° 0.5 mm 2 mps 610 mmHg 89%
13:00 -3°C° 0.2 mm 2 mps 610 mmHg 86%
14:00 -3°C° 0.2 mm 2 mps 610 mmHg 84%
15:00 -3°C° 0.2 mm 2 mps 610 mmHg 82%
16:00 -3°C° 0.1 mm 1 mps 610 mmHg 86%
17:00 -4°C° 0.1 mm 1 mps 609 mmHg 91%
18:00 -7°C° 0.1 mm 1 mps 609 mmHg 95%
19:00 -7°C° 0 mm 1 mps 609 mmHg 95%
20:00 -8°C° 0 mm 1 mps 609 mmHg 95%
21:00 -9°C° 0 mm 2 mps 609 mmHg 94%
22:00 -8°C° 0.3 mm 1 mps 610 mmHg 94%
23:00 -8°C° 0.3 mm 1 mps 610 mmHg 94%

Mañana, 2 Marzo, Martes

Tiempo Temperatura Precipitaciones Viento Presión Humedad
00:00 -7°C° 0.3 mm 1 mps 610 mmHg 94%
01:00 -7°C° 1 mm 1 mps 611 mmHg 95%
02:00 -7°C° 1 mm 2 mps 611 mmHg 95%
03:00 -7°C° 1 mm 2 mps 611 mmHg 96%
04:00 -8°C° 0.3 mm 2 mps 611 mmHg 96%
05:00 -9°C° 0.3 mm 2 mps 610 mmHg 97%
06:00 -9°C° 0.3 mm 2 mps 610 mmHg 97%
07:00 -8°C° 0.1 mm 2 mps 611 mmHg 96%
08:00 -7°C° 0.1 mm 2 mps 611 mmHg 94%
09:00 -6°C° 0.1 mm 2 mps 612 mmHg 93%
10:00 -6°C° 0.1 mm 2 mps 612 mmHg 91%
11:00 -6°C° 0.1 mm 3 mps 612 mmHg 90%
12:00 -6°C° 0.1 mm 3 mps 612 mmHg 88%
13:00 -6°C° 0.1 mm 3 mps 611 mmHg 88%
14:00 -6°C° 0.1 mm 3 mps 611 mmHg 88%
15:00 -5°C° 0.1 mm 2 mps 611 mmHg 87%
16:00 -7°C° 0 mm 2 mps 610 mmHg 90%
17:00 -9°C° 0 mm 2 mps 609 mmHg 93%
18:00 -10°C° 0 mm 1 mps 607 mmHg 96%
19:00 -12°C° 0 mm 2 mps 607 mmHg 91%
20:00 -13°C° 0 mm 2 mps 607 mmHg 85%
21:00 -13°C° 0 mm 2 mps 607 mmHg 80%
22:00 -13°C° 0 mm 2 mps 607 mmHg 77%
23:00 -13°C° 0 mm 2 mps 607 mmHg 74%

Pasado mañana, 3 Marzo, Miércoles

Tiempo Temperatura Precipitaciones Viento Presión Humedad
00:00 -13°C° 0 mm 2 mps 607 mmHg 71%
01:00 -13°C° 0 mm 2 mps 606 mmHg 72%
02:00 -13°C° 0 mm 2 mps 606 mmHg 72%
03:00 -13°C° 0 mm 2 mps 605 mmHg 73%
04:00 -13°C° 0 mm 2 mps 605 mmHg 71%
05:00 -13°C° 0 mm 2 mps 605 mmHg 69%
06:00 -14°C° 0 mm 3 mps 605 mmHg 67%
07:00 -12°C° 0 mm 3 mps 605 mmHg 65%
08:00 -9°C° 0 mm 3 mps 606 mmHg 64%
09:00 -7°C° 0 mm 3 mps 607 mmHg 62%
10:00 -7°C° 0 mm 4 mps 607 mmHg 63%
11:00 -5°C° 0 mm 4 mps 607 mmHg 64%
12:00 -6°C° 0 mm 5 mps 607 mmHg 65%
13:00 -6°C° 0 mm 5 mps 606 mmHg 69%
14:00 -5°C° 0 mm 4 mps 606 mmHg 72%
15:00 -7°C° 0 mm 4 mps 606 mmHg 75%
16:00 -7°C° 0 mm 3 mps 605 mmHg 80%
17:00 -9°C° 0 mm 3 mps 605 mmHg 85%
18:00 -10°C° 0 mm 2 mps 604 mmHg 90%
19:00 -12°C° 0 mm 2 mps 605 mmHg 88%
20:00 -12°C° 0 mm 2 mps 605 mmHg 85%
21:00 -14°C° 0 mm 3 mps 605 mmHg 82%
22:00 -14°C° 0 mm 3 mps 605 mmHg 82%
23:00 -14°C° 0 mm 2 mps 605 mmHg 82%

4 Marzo, Jueves

Tiempo Temperatura Precipitaciones Viento Presión Humedad
00:00 -14°C° 0 mm 2 mps 605 mmHg 83%
01:00 -14°C° 0 mm 2 mps 606 mmHg 82%
02:00 -14°C° 0 mm 2 mps 606 mmHg 82%
03:00 -14°C° 0 mm 2 mps 606 mmHg 82%
04:00 -14°C° 0 mm 2 mps 606 mmHg 81%
05:00 -14°C° 0 mm 2 mps 607 mmHg 81%
06:00 -15°C° 0 mm 2 mps 607 mmHg 80%
07:00 -12°C° 0 mm 2 mps 608 mmHg 78%
08:00 -9°C° 0 mm 2 mps 610 mmHg 76%
09:00 -6°C° 0 mm 1 mps 611 mmHg 73%
10:00 -6°C° 0 mm 2 mps 611 mmHg 76%
11:00 -5°C° 0 mm 2 mps 612 mmHg 78%
12:00 -4°C° 0 mm 2 mps 612 mmHg 81%
13:00 -4°C° 0 mm 2 mps 611 mmHg 82%
14:00 -5°C° 0 mm 3 mps 611 mmHg 84%
15:00 -5°C° 0 mm 3 mps 611 mmHg 85%
16:00 -6°C° 0 mm 2 mps 610 mmHg 88%
17:00 -8°C° 0 mm 2 mps 609 mmHg 91%
18:00 -10°C° 0 mm 2 mps 609 mmHg 94%
19:00 -12°C° 0 mm 2 mps 608 mmHg 91%
20:00 -12°C° 0 mm 2 mps 608 mmHg 88%
21:00 -13°C° 0 mm 2 mps 608 mmHg 85%
22:00 -12°C° 0 mm 2 mps 608 mmHg 81%
23:00 -12°C° 0 mm 2 mps 608 mmHg 77%

5 Marzo, Viernes

Tiempo Temperatura Precipitaciones Viento Presión Humedad
00:00 -12°C° 0 mm 2 mps 607 mmHg 73%
01:00 -12°C° 0 mm 2 mps 607 mmHg 68%
02:00 -10°C° 0 mm 2 mps 607 mmHg 62%
03:00 -10°C° 0 mm 2 mps 606 mmHg 57%
04:00 -9°C° 0 mm 2 mps 607 mmHg 53%
05:00 -7°C° 0 mm 1 mps 607 mmHg 50%
06:00 -6°C° 0 mm 1 mps 607 mmHg 47%
07:00 -4°C° 0 mm 1 mps 608 mmHg 50%
08:00 -3°C° 0 mm 0 mps 609 mmHg 52%
09:00 -1°C° 0 mm 0 mps 609 mmHg 55%
10:00 0°C° 0 mm 0 mps 609 mmHg 62%
11:00 +1°C° 0 mm 1 mps 609 mmHg 68%
12:00 +2°C° 0 mm 1 mps 609 mmHg 75%
13:00 +2°C° 0 mm 1 mps 609 mmHg 75%
14:00 +2°C° 0 mm 1 mps 609 mmHg 75%
15:00 +3°C° 0 mm 1 mps 609 mmHg 76%
16:00 +1°C° 0 mm 1 mps 608 mmHg 76%
17:00 -4°C° 0 mm 2 mps 607 mmHg 77%
18:00 -6°C° 0 mm 2 mps 607 mmHg 77%
19:00 -6°C° 0 mm 2 mps 607 mmHg 66%
20:00 -7°C° 0 mm 2 mps 607 mmHg 55%
21:00 -7°C° 0 mm 2 mps 607 mmHg 43%
22:00 -7°C° 0 mm 2 mps 607 mmHg 39%
23:00 -8°C° 0 mm 2 mps 607 mmHg 35%

6 Marzo, Sábado

Tiempo Temperatura Precipitaciones Viento Presión Humedad
00:00 -8°C° 0 mm 2 mps 607 mmHg 30%
01:00 -8°C° 0 mm 2 mps 607 mmHg 29%
02:00 -8°C° 0 mm 2 mps 607 mmHg 28%
03:00 -7°C° 0 mm 2 mps 607 mmHg 26%
04:00 -7°C° 0 mm 2 mps 607 mmHg 26%
05:00 -7°C° 0 mm 2 mps 607 mmHg 25%
06:00 -7°C° 0 mm 2 mps 607 mmHg 24%
07:00 -2°C° 0 mm 1 mps 608 mmHg 31%
08:00 0°C° 0 mm 1 mps 610 mmHg 37%
09:00 +3°C° 0 mm 1 mps 611 mmHg 43%
10:00 +4°C° 0 mm 1 mps 610 mmHg 51%
11:00 +4°C° 0 mm 1 mps 610 mmHg 59%
12:00 +5°C° 0 mm 1 mps 610 mmHg 67%
13:00 +5°C° 0 mm 1 mps 610 mmHg 67%
14:00 +4°C° 0 mm 2 mps 609 mmHg 66%
15:00 +4°C° 0 mm 2 mps 609 mmHg 66%
16:00 +1°C° 0 mm 2 mps 608 mmHg 58%
17:00 -2°C° 0 mm 2 mps 607 mmHg 49%
18:00 -4°C° 0 mm 2 mps 606 mmHg 40%
19:00 -4°C° 0 mm 2 mps 606 mmHg 36%
20:00 -4°C° 0 mm 2 mps 606 mmHg 31%
21:00 -5°C° 0 mm 2 mps 606 mmHg 26%
22:00 -5°C° 0 mm 2 mps 606 mmHg 28%
23:00 -4°C° 0 mm 2 mps 605 mmHg 30%
Mostrar más

Necesitamos Su Consentimiento

Meteoprog y nuestros Proveedores de Servicios pueden almacenar y acceder a sus datos personales como cookies, identificadores de dispositivo u otras tecnologías similares de su dispositivo y procesar dichos datos para personalizar contenido y anuncios, además de ofrecer funciones de redes sociales y analizar el tráfico.

  • Almacenar y/o acceder a información en su dispositivo

    Se puede almacenar o acceder a cookies, identificadores de dispositivo u otra información de su dispositivo para los fines anteriormente indicados.

  • Anuncios y contenido personalizados, medición de anuncios y contenido, percepciones del público, y desarrollo de productos

    Los anuncios y el contenido pueden personalizarse en base a su perfil. Se pueden añadir más datos para personalizar mejor los anuncios y contenidos. Se puede medir el rendimiento de los anuncios y contenidos. Se puede obtener la percepción sobre el público que ha visto los anuncios y contenidos. Dichos datos pueden usarse para desarrollar o mejorar la experiencia del usuario, sistemas y software.

Al hacer clic en ‘Estoy De Acuerdo’ usted permitirá el uso de las cookies, identificadores de dispositivo, balizas web u otras tecnologías similares indicadas. Su configuración puede cambiarse desde el navegador de su dispositivo.

Para ciertos fines, los intereses legítimos pueden ser considerados por encima del consentimiento. Puede leer más sobre ello en nuestra Política de Privacidad y Cookies.